Location: East Horndon
(51.5667°N, 0.3500°E)
Time: 23:07:19
(UTC+00:00)

Cosmos 2219 Rocket - Pass Details

Date: 08 November 2025
Orbit: 825 x 847 km, 71.0° (Epoch: 04 December)

Event Time Altitude Azimuth Distance (km) Brightness Sun altitude
Exits shadow 04:36:54 54° 269° (W) 1,023 2.2 -23.1°
Maximum altitude 04:37:43 60° 306° (NW) 968 2.2 -23.0°
Drops below altitude 10° 04:43:21 10° 26° (NNE) 2,480 4.9 -22.1°
Sets 04:45:52 0° 30° (NNE) 3,420 5.8 -21.7°
